Tracking 30703 objects as of 13-Jun-2025
HD Live streaming from Space Station
objects crossing your sky now

FENGYUN 1C DEB

Track FENGYUN 1C DEB now!
10-day predictions


NORAD ID: 30398
Int'l Code: 1999-025ADM
Perigee: 847.7 km
Apogee: 1,105.1 km
Inclination: 99.7 °
Period: 104.5 minutes
Semi major axis: 7347 km
RCS: 0.0135 m2 (small)
Launch date: May 10, 1999
Source: People's Republic of China (PRC)
Launch site: Taiyaun Space Center, China (TSC)

Note: This is SATELLITE DEBRIS
Your satellite tracking list
Your tracking list is empty




NASA's NSSDC Master Catalog

Two Line Element Set (TLE):
1 30398U 99025ADM 25163.44574734  .00000463  00000-0  44862-3 0  9993
2 30398  99.7295  55.4124 0175172  53.4720 124.2831 13.78480180922599
Source of the keplerian elements: AFSPC